Back to catalog

WEINA 2

AliveScienceSSO
NORAD 47303·PAYLOAD·🇨🇳 China

Launched Dec 27, 2020 from Jiuquan Satellite Launch Center

Loading…

Next Passes (next 24 hours)

TLE

FreshSource: Space-Track

Epoch: Sep 14, 2026, 15:05 UTC

1 47303U 20103B   26257.62902043  .00000569  00000-0  11452-3 0  9997
2 47303  98.0389 144.9026 0001017 304.4987  55.6120 14.65161623304827

Track WEINA 2 in real time with AllMySat

Download on the App Store